DECAYED

OBJECT AJ, 57198 (Decayed)

Orbit data source: Space-Track

You're viewing an Uncataloged Satellite

Recently launched and/or uncataloged satellites may have evolving metadata. Metadata may include but not limited to: Owner, Maufacturer, Bus, Motor, and Mission.

OBJECT AJ, 57198 was a satellite in LEO that was launched on Tue, 27 Jun 2023 UTC via a SOYUZ-2-1B launch vehicle from the Vostochny Cosmodrome (VOSTO). Unknown objects in Earth's orbit typically refer to objects detected orbiting the Earth but have not yet been identified or cataloged. These objects could be anything from previously untracked satellites, spent rocket stages, debris from satellite collisions, or even natural meteoroids temporarily captured by Earth's gravity. This object's orbit decayed before it could be identified.

Not visible in the next 10 days
Identifier
57198, 2023-091AJ
Orbit
Decayed
Country
Flag of TBDTBD
Related business
Flag of RUMoscow State Technical University of Civil Aviation (RU)
Manufacturer
MGTU Bauman
Mission
Decayed Amateur Science
Bus & Motor
CUBESAT 3U?, Unknown motor
Mass
3 kg wet, 3 kg dry
Launch date (UTC)
2023-06-27 (3 years ago)
Launch vehicle
SOYUZ-2-1B
Launch site
Vostochny Cosmodrome (VOSTO)
Object type
Unknown
Shape & HBR
Box, 0.1 m
Radar Cross Section
0.035 m², Medium (>0.1 m² and < 1m²)

Expand to show TLE details & history
Last TLE update: 1 year ago

TLE from 1 year ago
0 OBJECT AJ
1 57198U 23091AJ  25118.65555382  .17641818  26040-5  51427-3 0  9996
2 57198  97.5311 190.2347 0019292 248.7344 111.1897 16.43267910102144
Epoch: 2025-04-28T15:43Z
TLE epoch observation values (Epoch: 2025-04-28T15:43:59.850Z)
Latitude
0.00003°
Longitude
97.36887°
Altitude
164.955 km
Speed
7.804 km/s
True Right ascension
12h 40m 56s
True Declination
0° 00' 00"
Sunlit
Object was in full shadow at epoch
Visualization orbit readout
Latitude
Unknown
Longitude
Unknown
Altitude
Unknown
Speed
Unknown
Apparent Right ascension
Unknown
Apparent Declination
Unknown
Sunlit
N/A
Visualization observer readout
Local Sidereal Time
19:40:57
Azimuth
Unknown
Elevation
Unknown
Doppler factor
Unknown
Orbital elements
Apogee altitude
166.535 km
Perigee altitude
141.331 km
Semi-major axis
6,532.07 km
Eccentricity
0.00193
Inclination
97.5311°
RAAN
190.2347°
Arg. of periapsis
248.7344°
True anomaly
111.39564°
Mean anomaly
111.1897°
Eccentric anomaly
111.29269°
Mean motion
4.11118 °/min
Orbital period
87.57 mins
BSTAR
0.00051427
Loading maneuver chart data...
Computing Atmospheric mass density...
Loading historical data...
Loading historical data...
Loading historical data...
Loading historical data...
Loading historical data...
Loading historical data...
Loading historical data...

Documentation

Showing up to 5 results
|